Date,TemperatureHighF,TemperatureAvgF,TemperatureLowF,DewpointHighF,DewpointAvgF,DewpointLowF,HumidityHigh,HumidityAvg,HumidityLow,PressureMaxIn,PressureMinIn,WindSpeedMaxMPH,WindSpeedAvgMPH,GustSpeedMaxMPH,PrecipitationSumIn
2013-3-1,38.5,34.4,31.5,35.0,33.5,29.4,100,96,83,30.03,29.94,8,1,9,0.06
2013-3-2,31.5,29.0,27.2,30.0,24.4,21.6,95,83,69,30.12,30.02,10,2,10,0.02
2013-3-3,35.5,28.1,19.5,25.4,21.5,17.0,92,77,53,30.13,30.08,12,1,12,0.00
2013-3-4,44.8,31.6,14.8,27.0,20.1,12.9,100,66,34,30.20,30.00,9,1,9,0.00
2013-3-5,43.9,38.5,29.1,43.9,34.1,25.2,100,86,57,30.00,29.56,23,2,23,0.67
2013-3-6,31.8,30.0,28.4,29.4,28.2,26.7,100,93,85,30.30,29.75,12,3,15,0.05
2013-3-7,36.6,32.5,30.1,30.6,28.7,25.4,97,86,74,30.41,30.28,7,0,7,0.13
2013-3-8,47.4,36.7,25.3,31.8,26.8,23.7,97,69,47,30.48,30.37,8,1,8,0.00
2013-3-9,63.2,45.4,28.1,40.6,30.9,25.8,95,61,27,30.37,30.06,10,1,10,0.00
2013-3-10,69.8,59.9,50.5,35.3,31.5,28.2,54,35,23,30.07,29.84,14,2,15,0.00
2013-3-11,61.6,49.8,38.3,54.8,44.4,32.7,100,83,34,29.90,29.64,22,2,22,0.87
2013-3-12,48.5,39.5,34.0,34.1,29.7,26.3,85,69,48,30.08,29.90,14,3,14,0.00
2013-3-13,37.3,31.6,27.0,32.0,23.6,16.7,98,73,52,30.38,30.06,21,4,21,0.01
2013-3-14,46.7,33.1,18.1,28.6,19.9,13.4,96,63,29,30.41,30.23,14,1,14,0.00
2013-3-15,35.9,32.0,29.5,30.9,27.7,26.0,95,84,72,30.23,30.07,4,0,4,0.00
2013-3-16,45.1,44.6,44.1,41.0,40.9,40.6,88,86,85,29.96,29.96,9,1,9,0.01
2013-3-17,43.9,35.6,32.8,40.8,34.4,32.1,100,96,82,30.10,29.95,14,3,14,0.70
2013-3-18,55.3,44.9,34.1,54.8,43.6,33.4,100,96,72,29.95,29.66,23,4,23,0.96
2013-3-19,47.9,39.4,32.8,34.1,23.5,7.7,94,58,21,30.16,29.88,23,4,23,0.00
2013-3-20,47.7,32.9,22.9,26.8,16.9,8.6,83,54,30,30.16,29.97,21,4,23,0.00
2013-3-21,35.2,24.9,17.8,21.3,12.9,7.5,79,62,35,30.08,29.98,13,1,13,0.00
2013-3-22,46.2,31.0,14.8,24.3,16.2,11.9,93,59,28,30.13,30.02,10,1,10,0.00
2013-3-23,55.0,43.1,35.5,28.3,24.4,20.3,71,49,29,30.06,29.84,11,1,11,0.00
2013-3-24,42.2,37.8,34.0,38.9,31.5,21.3,100,81,46,29.84,29.36,15,2,18,1.26
2013-3-25,38.8,32.8,29.8,38.8,30.6,27.3,100,92,81,29.99,29.45,22,5,22,0.07
2013-3-26,40.2,34.2,31.6,34.6,30.6,25.5,100,87,67,30.28,29.99,13,2,13,0.05
2013-3-27,44.5,36.2,25.4,30.3,25.3,22.1,91,66,45,30.36,30.27,12,1,13,0.00
2013-3-28,51.0,38.2,24.5,31.9,25.7,21.1,99,64,35,30.39,30.30,11,1,11,0.00
2013-3-29,58.9,41.7,25.7,38.3,30.6,24.4,97,70,30,30.34,30.22,14,1,14,0.00
2013-3-30,61.2,45.6,29.5,44.6,35.1,29.5,100,72,33,30.25,29.95,10,0,10,0.00
2013-3-31,59.8,49.8,41.9,49.5,44.7,38.5,100,84,52,29.95,29.80,12,1,12,0.09